Time,TemperatureF,DewpointF,PressureIn,WindDirection,WindDirectionDegrees,WindSpeedMPH,WindSpeedGustMPH,Humidity,HourlyPrecipIn,Conditions,Clouds,dailyrainin,SoftwareType,DateUTC
2013-03-26 00:00:00,47.2,38.6,30.01,West,279,0.0,0.0,72,0.00,,,0.01,Wunderground v.1.15,2013-03-26 04:00:00,
2013-03-26 00:05:00,47.1,38.9,30.01,West,279,0.0,0.0,73,0.00,,,0.00,Wunderground v.1.15,2013-03-26 04:05:00,
2013-03-26 00:10:00,47.2,39.0,30.01,West,279,0.0,0.0,73,0.00,,,0.00,Wunderground v.1.15,2013-03-26 04:10:00,
2013-03-26 00:15:00,47.5,39.6,30.01,West,279,0.0,0.0,74,0.00,,,0.00,Wunderground v.1.15,2013-03-26 04:15:00,
2013-03-26 00:20:00,47.8,40.3,30.02,West,279,0.0,0.0,75,0.00,,,0.00,Wunderground v.1.15,2013-03-26 04:20:00,
2013-03-26 00:25:00,48.1,40.5,30.02,West,279,0.0,0.0,75,0.00,,,0.00,Wunderground v.1.15,2013-03-26 04:25:00,
2013-03-26 00:30:00,48.3,40.7,30.02,West,279,0.0,0.0,75,0.00,,,0.00,Wunderground v.1.15,2013-03-26 04:30:00,
2013-03-26 00:35:00,48.5,40.9,30.02,West,279,0.0,0.0,75,0.00,,,0.00,Wunderground v.1.15,2013-03-26 04:35:00,
2013-03-26 00:40:00,48.7,41.1,30.03,West,279,0.0,0.0,75,0.00,,,0.00,Wunderground v.1.15,2013-03-26 04:40:00,
2013-03-26 00:50:00,48.9,41.3,30.02,West,279,0.0,2.0,75,0.00,,,0.00,Wunderground v.1.15,2013-03-26 04:50:00,
2013-03-26 00:55:00,49.0,41.4,30.02,West,279,1.0,2.0,75,0.00,,,0.00,Wunderground v.1.15,2013-03-26 04:55:00,
2013-03-26 01:00:00,49.0,41.4,30.02,West,279,0.0,3.0,75,0.00,,,0.00,Wunderground v.1.15,2013-03-26 05:00:00,
2013-03-26 01:05:00,48.9,41.3,30.02,West,279,0.0,3.0,75,0.00,,,0.00,Wunderground v.1.15,2013-03-26 05:05:00,
2013-03-26 01:10:00,48.9,41.3,30.02,West,279,0.0,3.0,75,0.00,,,0.00,Wunderground v.1.15,2013-03-26 05:10:00,
2013-03-26 01:20:00,49.1,41.9,30.03,West,279,1.0,1.0,76,0.00,,,0.00,Wunderground v.1.15,2013-03-26 05:20:00,
2013-03-26 01:25:00,49.2,42.0,30.03,West,279,0.0,4.0,76,0.00,,,0.00,Wunderground v.1.15,2013-03-26 05:25:00,
2013-03-26 01:30:00,49.2,42.0,30.03,West,279,1.0,1.0,76,0.00,,,0.00,Wunderground v.1.15,2013-03-26 05:30:00,
2013-03-26 01:35:00,49.3,42.1,30.02,West,279,1.0,1.0,76,0.00,,,0.00,Wunderground v.1.15,2013-03-26 05:35:00,
2013-03-26 01:40:00,49.3,42.1,30.03,West,280,1.0,1.0,76,0.00,,,0.00,Wunderground v.1.15,2013-03-26 05:40:00,
2013-03-26 01:45:00,49.4,42.1,30.02,West,280,1.0,1.0,76,0.00,,,0.00,Wunderground v.1.15,2013-03-26 05:45:00,
2013-03-26 01:50:00,49.4,42.1,30.03,West,280,0.0,0.0,76,0.00,,,0.00,Wunderground v.1.15,2013-03-26 05:50:00,
2013-03-26 02:00:00,49.4,42.5,30.03,West,279,1.0,1.0,77,0.00,,,0.00,Wunderground v.1.15,2013-03-26 06:00:00,
2013-03-26 02:05:00,49.5,42.2,30.02,West,279,1.0,1.0,76,0.00,,,0.00,Wunderground v.1.15,2013-03-26 06:05:00,
2013-03-26 02:10:00,49.5,42.2,30.02,West,279,0.0,0.0,76,0.00,,,0.00,Wunderground v.1.15,2013-03-26 06:10:00,
2013-03-26 02:15:00,49.4,42.1,30.02,West,279,0.0,0.0,76,0.00,,,0.00,Wunderground v.1.15,2013-03-26 06:15:00,
2013-03-26 02:20:00,49.3,42.1,30.02,West,279,0.0,0.0,76,0.00,,,0.00,Wunderground v.1.15,2013-03-26 06:20:00,
2013-03-26 02:25:00,49.2,42.0,30.02,West,279,0.0,0.0,76,0.00,,,0.00,Wunderground v.1.15,2013-03-26 06:25:00,
2013-03-26 02:30:00,48.8,41.6,30.02,West,279,0.0,0.0,76,0.00,,,0.00,Wunderground v.1.15,2013-03-26 06:30:00,
2013-03-26 02:35:00,48.6,41.7,30.02,West,279,0.0,0.0,77,0.00,,,0.00,Wunderground v.1.15,2013-03-26 06:35:00,
2013-03-26 02:40:00,48.4,41.9,30.02,West,279,0.0,0.0,78,0.00,,,0.00,Wunderground v.1.15,2013-03-26 06:40:00,
2013-03-26 02:45:00,48.4,41.9,30.02,West,279,0.0,1.0,78,0.00,,,0.00,Wunderground v.1.15,2013-03-26 06:45:00,
2013-03-26 02:50:00,48.5,42.3,30.02,West,279,0.0,0.0,79,0.00,,,0.00,Wunderground v.1.15,2013-03-26 06:50:00,
2013-03-26 02:55:00,48.6,42.4,30.02,West,279,1.0,1.0,79,0.00,,,0.00,Wunderground v.1.15,2013-03-26 06:55:00,
2013-03-26 03:00:00,48.7,42.5,30.02,West,279,0.0,0.0,79,0.00,,,0.00,Wunderground v.1.15,2013-03-26 07:00:00,
2013-03-26 03:05:00,48.7,42.5,30.02,West,279,1.0,1.0,79,0.00,,,0.00,Wunderground v.1.15,2013-03-26 07:05:00,
2013-03-26 03:10:00,48.7,42.5,30.02,West,279,1.0,1.0,79,0.00,,,0.00,Wunderground v.1.15,2013-03-26 07:10:00,
2013-03-26 03:15:00,48.7,42.1,30.02,West,279,1.0,1.0,78,0.00,,,0.00,Wunderground v.1.15,2013-03-26 07:15:00,
2013-03-26 03:20:00,48.7,42.1,30.02,West,280,1.0,1.0,78,0.00,,,0.00,Wunderground v.1.15,2013-03-26 07:20:00,
2013-03-26 03:25:00,48.7,42.1,30.02,West,280,1.0,1.0,78,0.00,,,0.00,Wunderground v.1.15,2013-03-26 07:25:00,
2013-03-26 03:30:00,48.7,41.8,30.02,West,280,1.0,1.0,77,0.00,,,0.00,Wunderground v.1.15,2013-03-26 07:30:00,
2013-03-26 03:40:00,48.5,41.3,30.02,West,281,1.0,1.0,76,0.00,,,0.00,Wunderground v.1.15,2013-03-26 07:40:00,
2013-03-26 03:45:00,48.4,40.8,30.02,WNW,285,2.0,3.0,75,0.00,,,0.00,Wunderground v.1.15,2013-03-26 07:45:00,
2013-03-26 03:55:00,48.5,40.6,30.02,WNW,286,2.0,4.0,74,0.00,,,0.00,Wunderground v.1.15,2013-03-26 07:55:00,
2013-03-26 04:00:00,48.6,40.3,30.02,WNW,286,1.0,1.0,73,0.00,,,0.00,Wunderground v.1.15,2013-03-26 08:00:00,
2013-03-26 04:05:00,48.7,40.4,30.03,WNW,286,1.0,1.0,73,0.00,,,0.00,Wunderground v.1.15,2013-03-26 08:05:00,
2013-03-26 04:10:00,48.8,40.2,30.03,WNW,286,1.0,1.0,72,0.00,,,0.00,Wunderground v.1.15,2013-03-26 08:10:00,
2013-03-26 04:15:00,49.0,40.0,30.03,WNW,286,1.0,3.0,71,0.00,,,0.00,Wunderground v.1.15,2013-03-26 08:15:00,
2013-03-26 04:20:00,49.1,39.7,30.02,WNW,296,2.0,2.0,70,0.00,,,0.00,Wunderground v.1.15,2013-03-26 08:20:00,
2013-03-26 04:25:00,49.2,39.1,30.03,WNW,299,2.0,2.0,68,0.00,,,0.00,Wunderground v.1.15,2013-03-26 08:25:00,
2013-03-26 04:30:00,49.3,38.8,30.03,WNW,300,2.0,2.0,67,0.00,,,0.00,Wunderground v.1.15,2013-03-26 08:30:00,
2013-03-26 04:35:00,49.4,38.5,30.03,WNW,302,2.0,2.0,66,0.00,,,0.00,Wunderground v.1.15,2013-03-26 08:35:00,
2013-03-26 04:40:00,49.4,38.1,30.03,NW,304,2.0,2.0,65,0.00,,,0.00,Wunderground v.1.15,2013-03-26 08:40:00,
2013-03-26 04:45:00,49.3,37.2,30.03,NW,307,3.0,6.0,63,0.00,,,0.00,Wunderground v.1.15,2013-03-26 08:45:00,
2013-03-26 04:50:00,49.3,36.8,30.03,NW,307,3.0,3.0,62,0.00,,,0.00,Wunderground v.1.15,2013-03-26 08:50:00,
2013-03-26 04:55:00,49.2,35.9,30.03,NW,309,3.0,7.0,60,0.00,,,0.00,Wunderground v.1.15,2013-03-26 08:55:00,
2013-03-26 05:00:00,49.2,35.5,30.03,NNW,338,4.0,4.0,59,0.00,,,0.00,Wunderground v.1.15,2013-03-26 09:00:00,
2013-03-26 05:05:00,49.2,35.0,30.03,NW,306,5.0,5.0,58,0.00,,,0.00,Wunderground v.1.15,2013-03-26 09:05:00,
2013-03-26 05:10:00,49.1,34.5,30.04,NW,308,5.0,5.0,57,0.00,,,0.00,Wunderground v.1.15,2013-03-26 09:10:00,
2013-03-26 05:15:00,49.0,34.0,30.03,NW,310,5.0,5.0,56,0.00,,,0.00,Wunderground v.1.15,2013-03-26 09:15:00,
2013-03-26 05:20:00,48.8,33.8,30.04,NW,316,4.0,4.0,56,0.00,,,0.00,Wunderground v.1.15,2013-03-26 09:20:00,
2013-03-26 05:30:00,48.3,32.9,30.04,NW,325,3.0,3.0,55,0.00,,,0.00,Wunderground v.1.15,2013-03-26 09:30:00,
2013-03-26 05:35:00,47.9,32.9,30.04,NNW,329,2.0,3.0,56,0.00,,,0.00,Wunderground v.1.15,2013-03-26 09:35:00,
2013-03-26 05:40:00,47.7,32.3,30.04,WNW,301,2.0,2.0,55,0.00,,,0.00,Wunderground v.1.15,2013-03-26 09:40:00,
2013-03-26 05:45:00,47.6,31.8,30.04,NW,319,4.0,4.0,54,0.00,,,0.00,Wunderground v.1.15,2013-03-26 09:45:00,
2013-03-26 05:50:00,47.3,31.5,30.05,NNW,329,3.0,5.0,54,0.00,,,0.00,Wunderground v.1.15,2013-03-26 09:50:00,
2013-03-26 05:55:00,47.0,31.2,30.05,NW,317,3.0,7.0,54,0.00,,,0.00,Wunderground v.1.15,2013-03-26 09:55:00,
2013-03-26 06:00:00,46.8,30.6,30.05,NW,323,3.0,4.0,53,0.00,,,0.00,Wunderground v.1.15,2013-03-26 10:00:00,
2013-03-26 06:05:00,46.7,30.0,30.06,NNW,333,4.0,4.0,52,0.00,,,0.00,Wunderground v.1.15,2013-03-26 10:05:00,
2013-03-26 06:10:00,46.6,29.9,30.06,NNW,335,3.0,3.0,52,0.00,,,0.00,Wunderground v.1.15,2013-03-26 10:10:00,
2013-03-26 06:15:00,46.5,30.3,30.06,NW,311,1.0,3.0,53,0.00,,,0.00,Wunderground v.1.15,2013-03-26 10:15:00,
2013-03-26 06:20:00,46.4,30.6,30.06,NW,317,1.0,1.0,54,0.00,,,0.00,Wunderground v.1.15,2013-03-26 10:20:00,
2013-03-26 06:25:00,46.3,30.5,30.06,NW,319,2.0,3.0,54,0.00,,,0.00,Wunderground v.1.15,2013-03-26 10:25:00,
2013-03-26 06:30:00,46.3,30.5,30.07,NNW,333,3.0,3.0,54,0.00,,,0.00,Wunderground v.1.15,2013-03-26 10:30:00,
2013-03-26 06:35:00,46.3,30.5,30.07,NW,323,3.0,3.0,54,0.00,,,0.00,Wunderground v.1.15,2013-03-26 10:35:00,
2013-03-26 06:40:00,46.3,30.1,30.08,NW,307,3.0,3.0,53,0.00,,,0.00,Wunderground v.1.15,2013-03-26 10:40:00,
2013-03-26 06:45:00,46.4,30.2,30.08,NNW,327,4.0,4.0,53,0.00,,,0.00,Wunderground v.1.15,2013-03-26 10:45:00,
2013-03-26 06:50:00,46.3,29.6,30.08,NW,320,4.0,4.0,52,0.00,,,0.00,Wunderground v.1.15,2013-03-26 10:50:00,
2013-03-26 06:55:00,46.3,29.6,30.08,NNW,333,4.0,4.0,52,0.00,,,0.00,Wunderground v.1.15,2013-03-26 10:55:00,
2013-03-26 07:00:00,46.1,29.4,30.08,NW,325,3.0,3.0,52,0.00,,,0.00,Wunderground v.1.15,2013-03-26 11:00:00,
2013-03-26 07:05:00,46.0,29.3,30.09,NNW,327,3.0,4.0,52,0.00,,,0.00,Wunderground v.1.15,2013-03-26 11:05:00,
2013-03-26 07:10:00,45.8,29.2,30.09,NW,313,4.0,5.0,52,0.00,,,0.00,Wunderground v.1.15,2013-03-26 11:10:00,
2013-03-26 07:15:00,45.7,29.5,30.09,NW,323,4.0,5.0,53,0.00,,,0.00,Wunderground v.1.15,2013-03-26 11:15:00,
2013-03-26 07:20:00,45.6,29.4,30.09,NNW,331,3.0,3.0,53,0.00,,,0.00,Wunderground v.1.15,2013-03-26 11:20:00,
2013-03-26 07:25:00,45.4,29.3,30.09,NNW,331,3.0,3.0,53,0.00,,,0.00,Wunderground v.1.15,2013-03-26 11:25:00,
2013-03-26 07:30:00,45.2,29.5,30.09,NNW,329,2.0,2.0,54,0.00,,,0.00,Wunderground v.1.15,2013-03-26 11:30:00,
2013-03-26 07:35:00,45.0,29.3,30.09,NNW,328,1.0,2.0,54,0.00,,,0.00,Wunderground v.1.15,2013-03-26 11:35:00,
2013-03-26 07:40:00,44.7,29.5,30.09,NW,325,1.0,1.0,55,0.00,,,0.00,Wunderground v.1.15,2013-03-26 11:40:00,
2013-03-26 07:45:00,44.6,29.4,30.09,NW,325,2.0,2.0,55,0.00,,,0.00,Wunderground v.1.15,2013-03-26 11:45:00,
2013-03-26 07:50:00,44.5,29.8,30.10,NW,325,1.0,1.0,56,0.00,,,0.00,Wunderground v.1.15,2013-03-26 11:50:00,
2013-03-26 07:55:00,44.3,29.6,30.10,NW,324,1.0,1.0,56,0.00,,,0.00,Wunderground v.1.15,2013-03-26 11:55:00,
2013-03-26 08:00:00,44.3,30.0,30.10,NW,318,2.0,2.0,57,0.00,,,0.00,Wunderground v.1.15,2013-03-26 12:00:00,
2013-03-26 08:05:00,44.2,29.9,30.10,NW,309,1.0,6.0,57,0.00,,,0.00,Wunderground v.1.15,2013-03-26 12:05:00,
2013-03-26 08:10:00,44.2,29.9,30.10,NW,309,1.0,2.0,57,0.00,,,0.00,Wunderground v.1.15,2013-03-26 12:10:00,
2013-03-26 08:15:00,44.3,30.4,30.10,NW,308,1.0,2.0,58,0.00,,,0.00,Wunderground v.1.15,2013-03-26 12:15:00,
2013-03-26 08:20:00,44.7,30.8,30.11,NW,311,2.0,3.0,58,0.00,,,0.00,Wunderground v.1.15,2013-03-26 12:20:00,
2013-03-26 08:30:00,45.4,31.0,30.12,NW,313,3.0,3.0,57,0.00,,,0.00,Wunderground v.1.15,2013-03-26 12:30:00,
2013-03-26 08:35:00,45.8,31.4,30.12,NW,307,3.0,3.0,57,0.00,,,0.00,Wunderground v.1.15,2013-03-26 12:35:00,
2013-03-26 08:40:00,46.3,31.4,30.13,NW,305,2.0,4.0,56,0.00,,,0.00,Wunderground v.1.15,2013-03-26 12:40:00,
2013-03-26 08:45:00,46.5,31.6,30.12,NW,311,2.0,4.0,56,0.00,,,0.00,Wunderground v.1.15,2013-03-26 12:45:00,
2013-03-26 08:50:00,46.8,31.5,30.13,NW,306,3.0,3.0,55,0.00,,,0.00,Wunderground v.1.15,2013-03-26 12:50:00,
2013-03-26 08:55:00,47.0,31.7,30.13,NW,306,3.0,3.0,55,0.00,,,0.00,Wunderground v.1.15,2013-03-26 12:55:00,
2013-03-26 09:00:00,47.2,31.8,30.13,NW,304,3.0,5.0,55,0.00,,,0.00,Wunderground v.1.15,2013-03-26 13:00:00,
2013-03-26 09:05:00,47.1,31.7,30.14,WNW,297,3.0,6.0,55,0.00,,,0.00,Wunderground v.1.15,2013-03-26 13:05:00,
2013-03-26 09:10:00,47.1,31.7,30.14,NW,317,3.0,3.0,55,0.00,,,0.00,Wunderground v.1.15,2013-03-26 13:10:00,
2013-03-26 09:15:00,47.6,32.2,30.14,NNW,348,2.0,4.0,55,0.00,,,0.00,Wunderground v.1.15,2013-03-26 13:15:00,
2013-03-26 09:20:00,48.1,32.2,30.14,WNW,292,2.0,2.0,54,0.00,,,0.00,Wunderground v.1.15,2013-03-26 13:20:00,
2013-03-26 09:25:00,48.7,32.3,30.14,NW,306,3.0,6.0,53,0.00,,,0.00,Wunderground v.1.15,2013-03-26 13:25:00,
2013-03-26 09:30:00,49.1,32.2,30.14,NNW,333,5.0,5.0,52,0.00,,,0.00,Wunderground v.1.15,2013-03-26 13:30:00,
2013-03-26 09:35:00,49.4,32.5,30.14,NNW,328,6.0,10.0,52,0.00,,,0.00,Wunderground v.1.15,2013-03-26 13:35:00,
2013-03-26 09:40:00,49.8,32.9,30.14,NNW,339,5.0,7.0,52,0.00,,,0.00,Wunderground v.1.15,2013-03-26 13:40:00,
2013-03-26 09:50:00,50.8,32.8,30.14,WNW,294,6.0,6.0,50,0.00,,,0.00,Wunderground v.1.15,2013-03-26 13:50:00,
2013-03-26 09:55:00,51.1,33.1,30.14,NNW,329,6.0,6.0,50,0.00,,,0.00,Wunderground v.1.15,2013-03-26 13:55:00,
2013-03-26 10:00:00,51.4,32.9,30.14,WNW,296,7.0,7.0,49,0.00,,,0.00,Wunderground v.1.15,2013-03-26 14:00:00,
2013-03-26 10:05:00,51.3,31.7,30.14,WNW,302,7.0,7.0,47,0.00,,,0.00,Wunderground v.1.15,2013-03-26 14:05:00,
2013-03-26 10:10:00,51.4,32.3,30.14,NW,318,8.0,8.0,48,0.00,,,0.00,Wunderground v.1.15,2013-03-26 14:10:00,
2013-03-26 10:15:00,51.5,32.4,30.14,NNW,336,7.0,8.0,48,0.00,,,0.00,Wunderground v.1.15,2013-03-26 14:15:00,
2013-03-26 10:20:00,51.7,32.1,30.14,WNW,290,7.0,7.0,47,0.00,,,0.00,Wunderground v.1.15,2013-03-26 14:20:00,
2013-03-26 10:30:00,52.5,32.3,30.14,WNW,298,7.0,7.0,46,0.00,,,0.00,Wunderground v.1.15,2013-03-26 14:30:00,
2013-03-26 10:40:00,52.2,32.0,30.14,NW,314,7.0,7.0,46,0.00,,,0.00,Wunderground v.1.15,2013-03-26 14:40:00,
2013-03-26 10:45:00,52.6,32.9,30.14,WNW,287,7.0,7.0,47,0.00,,,0.00,Wunderground v.1.15,2013-03-26 14:45:00,
2013-03-26 10:50:00,52.9,32.7,30.14,West,269,7.0,7.0,46,0.00,,,0.00,Wunderground v.1.15,2013-03-26 14:50:00,
2013-03-26 10:55:00,53.2,32.9,30.14,WNW,295,7.0,7.0,46,0.00,,,0.00,Wunderground v.1.15,2013-03-26 14:55:00,
2013-03-26 11:00:00,53.5,33.2,30.14,WNW,288,6.0,9.0,46,0.00,,,0.00,Wunderground v.1.15,2013-03-26 15:00:00,
2013-03-26 11:05:00,54.1,33.2,30.14,WNW,290,6.0,9.0,45,0.00,,,0.00,Wunderground v.1.15,2013-03-26 15:05:00,
2013-03-26 11:10:00,54.3,31.7,30.14,NW,311,6.0,9.0,42,0.00,,,0.00,Wunderground v.1.15,2013-03-26 15:10:00,
2013-03-26 11:15:00,54.3,31.7,30.14,WNW,288,7.0,9.0,42,0.00,,,0.00,Wunderground v.1.15,2013-03-26 15:15:00,
2013-03-26 11:20:00,54.9,32.2,30.14,WNW,295,7.0,7.0,42,0.00,,,0.00,Wunderground v.1.15,2013-03-26 15:20:00,
2013-03-26 11:25:00,55.3,33.2,30.14,NW,325,6.0,9.0,43,0.00,,,0.00,Wunderground v.1.15,2013-03-26 15:25:00,
2013-03-26 11:30:00,55.6,32.2,30.14,WNW,291,5.0,5.0,41,0.00,,,0.00,Wunderground v.1.15,2013-03-26 15:30:00,
2013-03-26 11:35:00,55.8,32.4,30.14,WNW,297,5.0,5.0,41,0.00,,,0.00,Wunderground v.1.15,2013-03-26 15:35:00,
2013-03-26 11:40:00,56.1,31.5,30.14,WNW,300,6.0,7.0,39,0.00,,,0.00,Wunderground v.1.15,2013-03-26 15:40:00,
2013-03-26 11:45:00,56.4,31.7,30.14,WNW,294,6.0,7.0,39,0.00,,,0.00,Wunderground v.1.15,2013-03-26 15:45:00,
2013-03-26 11:50:00,56.8,30.8,30.14,NW,322,6.0,6.0,37,0.00,,,0.00,Wunderground v.1.15,2013-03-26 15:50:00,
2013-03-26 11:55:00,56.8,31.4,30.14,North,350,7.0,7.0,38,0.00,,,0.00,Wunderground v.1.15,2013-03-26 15:55:00,
2013-03-26 12:00:00,56.9,30.9,30.14,WNW,296,6.0,6.0,37,0.00,,,0.00,Wunderground v.1.15,2013-03-26 16:00:00,
2013-03-26 12:05:00,57.0,31.0,30.14,NW,319,6.0,6.0,37,0.00,,,0.00,Wunderground v.1.15,2013-03-26 16:05:00,
2013-03-26 12:10:00,57.4,30.6,30.14,West,265,6.0,6.0,36,0.00,,,0.00,Wunderground v.1.15,2013-03-26 16:10:00,
2013-03-26 12:15:00,57.5,30.0,30.14,WNW,301,7.0,7.0,35,0.00,,,0.00,Wunderground v.1.15,2013-03-26 16:15:00,
2013-03-26 12:20:00,57.4,30.6,30.14,West,279,7.0,9.0,36,0.00,,,0.00,Wunderground v.1.15,2013-03-26 16:20:00,
2013-03-26 12:25:00,57.6,30.1,30.14,NW,310,7.0,12.0,35,0.00,,,0.00,Wunderground v.1.15,2013-03-26 16:25:00,
2013-03-26 12:30:00,57.5,30.0,30.14,WSW,240,7.0,7.0,35,0.00,,,0.00,Wunderground v.1.15,2013-03-26 16:30:00,
2013-03-26 12:35:00,57.8,29.6,30.14,WNW,300,6.0,7.0,34,0.00,,,0.00,Wunderground v.1.15,2013-03-26 16:35:00,
2013-03-26 12:40:00,58.4,30.1,30.14,WNW,296,6.0,6.0,34,0.00,,,0.00,Wunderground v.1.15,2013-03-26 16:40:00,
2013-03-26 12:45:00,59.0,30.6,30.13,WNW,303,5.0,9.0,34,0.00,,,0.00,Wunderground v.1.15,2013-03-26 16:45:00,
2013-03-26 12:50:00,59.1,29.2,30.13,WNW,291,6.0,7.0,32,0.00,,,0.00,Wunderground v.1.15,2013-03-26 16:50:00,
2013-03-26 12:55:00,59.0,29.9,30.13,NW,306,7.0,13.0,33,0.00,,,0.00,Wunderground v.1.15,2013-03-26 16:55:00,
2013-03-26 13:00:00,58.5,28.7,30.13,West,266,7.0,7.0,32,0.00,,,0.00,Wunderground v.1.15,2013-03-26 17:00:00,
2013-03-26 13:05:00,58.4,29.4,30.13,NNW,342,7.0,11.0,33,0.00,,,0.00,Wunderground v.1.15,2013-03-26 17:05:00,
2013-03-26 13:10:00,58.5,28.7,30.13,NW,306,7.0,7.0,32,0.00,,,0.00,Wunderground v.1.15,2013-03-26 17:10:00,
2013-03-26 13:20:00,59.7,31.3,30.12,West,264,4.0,8.0,34,0.00,,,0.00,Wunderground v.1.15,2013-03-26 17:20:00,
2013-03-26 13:25:00,60.0,29.2,30.12,WNW,299,5.0,8.0,31,0.00,,,0.00,Wunderground v.1.15,2013-03-26 17:25:00,
2013-03-26 13:30:00,60.0,29.2,30.13,NNW,330,7.0,11.0,31,0.00,,,0.00,Wunderground v.1.15,2013-03-26 17:30:00,
2013-03-26 13:35:00,60.0,30.0,30.13,West,277,6.0,11.0,32,0.00,,,0.00,Wunderground v.1.15,2013-03-26 17:35:00,
2013-03-26 13:40:00,60.3,30.3,30.12,WNW,298,6.0,11.0,32,0.00,,,0.00,Wunderground v.1.15,2013-03-26 17:40:00,
2013-03-26 13:45:00,60.7,30.6,30.12,WSW,238,5.0,11.0,32,0.00,,,0.00,Wunderground v.1.15,2013-03-26 17:45:00,
2013-03-26 13:50:00,60.7,29.9,30.12,WNW,300,5.0,7.0,31,0.00,,,0.00,Wunderground v.1.15,2013-03-26 17:50:00,
2013-03-26 13:55:00,60.7,29.1,30.12,SW,218,6.0,7.0,30,0.00,,,0.00,Wunderground v.1.15,2013-03-26 17:55:00,
2013-03-26 14:00:00,60.1,29.3,30.12,NW,321,8.0,8.0,31,0.00,,,0.00,Wunderground v.1.15,2013-03-26 18:00:00,
2013-03-26 14:05:00,60.1,29.3,30.12,NW,322,7.0,8.0,31,0.00,,,0.00,Wunderground v.1.15,2013-03-26 18:05:00,
2013-03-26 14:10:00,59.8,29.1,30.12,West,276,7.0,7.0,31,0.00,,,0.00,Wunderground v.1.15,2013-03-26 18:10:00,
2013-03-26 14:15:00,60.2,31.0,30.12,WNW,296,6.0,7.0,33,0.00,,,0.00,Wunderground v.1.15,2013-03-26 18:15:00,
2013-03-26 14:20:00,60.6,31.3,30.11,WSW,250,4.0,4.0,33,0.00,,,0.00,Wunderground v.1.15,2013-03-26 18:20:00,
2013-03-26 14:25:00,60.5,32.0,30.12,West,269,6.0,14.0,34,0.00,,,0.00,Wunderground v.1.15,2013-03-26 18:25:00,
2013-03-26 14:30:00,60.4,31.1,30.12,NW,306,7.0,7.0,33,0.00,,,0.00,Wunderground v.1.15,2013-03-26 18:30:00,
2013-03-26 14:35:00,60.5,32.7,30.11,WNW,299,5.0,11.0,35,0.00,,,0.00,Wunderground v.1.15,2013-03-26 18:35:00,
2013-03-26 14:40:00,60.7,32.9,30.11,WNW,293,6.0,7.0,35,0.00,,,0.00,Wunderground v.1.15,2013-03-26 18:40:00,
2013-03-26 14:45:00,60.8,33.0,30.11,WNW,300,7.0,16.0,35,0.00,,,0.00,Wunderground v.1.15,2013-03-26 18:45:00,
2013-03-26 14:50:00,60.7,32.9,30.11,WNW,292,7.0,7.0,35,0.00,,,0.00,Wunderground v.1.15,2013-03-26 18:50:00,
2013-03-26 15:00:00,60.2,33.1,30.11,West,273,7.0,7.0,36,0.00,,,0.00,Wunderground v.1.15,2013-03-26 19:00:00,
2013-03-26 15:05:00,60.8,31.5,30.11,WNW,302,6.0,9.0,33,0.00,,,0.00,Wunderground v.1.15,2013-03-26 19:05:00,
2013-03-26 15:10:00,61.1,33.2,30.11,West,281,5.0,5.0,35,0.00,,,0.00,Wunderground v.1.15,2013-03-26 19:10:00,
2013-03-26 15:20:00,60.8,31.5,30.10,NNW,329,7.0,7.0,33,0.00,,,0.00,Wunderground v.1.15,2013-03-26 19:20:00,
2013-03-26 15:30:00,60.4,31.1,30.10,West,275,7.0,7.0,33,0.00,,,0.00,Wunderground v.1.15,2013-03-26 19:30:00,
2013-03-26 15:35:00,60.6,31.3,30.10,West,273,6.0,11.0,33,0.00,,,0.00,Wunderground v.1.15,2013-03-26 19:35:00,
2013-03-26 15:40:00,60.6,32.1,30.10,NW,319,6.0,6.0,34,0.00,,,0.00,Wunderground v.1.15,2013-03-26 19:40:00,
2013-03-26 15:45:00,60.7,32.1,30.10,SW,228,6.0,6.0,34,0.00,,,0.00,Wunderground v.1.15,2013-03-26 19:45:00,
2013-03-26 15:50:00,60.9,31.6,30.10,WNW,302,6.0,11.0,33,0.00,,,0.00,Wunderground v.1.15,2013-03-26 19:50:00,
2013-03-26 15:55:00,60.4,30.4,30.10,NW,311,7.0,11.0,32,0.00,,,0.00,Wunderground v.1.15,2013-03-26 19:55:00,
2013-03-26 16:00:00,60.0,30.8,30.10,NW,304,8.0,8.0,33,0.00,,,0.00,Wunderground v.1.15,2013-03-26 20:00:00,
2013-03-26 16:10:00,60.3,31.8,30.10,WNW,293,6.0,13.0,34,0.00,,,0.00,Wunderground v.1.15,2013-03-26 20:10:00,
2013-03-26 16:20:00,59.4,31.7,30.10,West,276,6.0,6.0,35,0.00,,,0.00,Wunderground v.1.15,2013-03-26 20:20:00,
2013-03-26 16:30:00,59.6,31.9,30.10,WNW,295,6.0,6.0,35,0.00,,,0.00,Wunderground v.1.15,2013-03-26 20:30:00,
2013-03-26 16:40:00,59.0,29.9,30.10,WNW,282,6.0,10.0,33,0.00,,,0.00,Wunderground v.1.15,2013-03-26 20:40:00,
2013-03-26 16:45:00,58.8,29.7,30.10,West,271,7.0,11.0,33,0.00,,,0.00,Wunderground v.1.15,2013-03-26 20:45:00,
2013-03-26 16:50:00,58.5,30.9,30.10,WNW,303,7.0,9.0,35,0.00,,,0.00,Wunderground v.1.15,2013-03-26 20:50:00,
2013-03-26 16:55:00,58.6,31.0,30.10,NW,313,5.0,9.0,35,0.00,,,0.00,Wunderground v.1.15,2013-03-26 20:55:00,
2013-03-26 17:00:00,59.0,29.9,30.10,WNW,290,5.0,12.0,33,0.00,,,0.00,Wunderground v.1.15,2013-03-26 21:00:00,
2013-03-26 17:05:00,59.0,29.9,30.10,WSW,255,6.0,19.0,33,0.00,,,0.00,Wunderground v.1.15,2013-03-26 21:05:00,
2013-03-26 17:10:00,58.5,28.7,30.10,WNW,299,7.0,12.0,32,0.00,,,0.00,Wunderground v.1.15,2013-03-26 21:10:00,
2013-03-26 17:15:00,58.2,29.9,30.10,West,263,6.0,12.0,34,0.00,,,0.00,Wunderground v.1.15,2013-03-26 21:15:00,
2013-03-26 17:20:00,58.2,29.9,30.10,WNW,286,6.0,6.0,34,0.00,,,0.00,Wunderground v.1.15,2013-03-26 21:20:00,
2013-03-26 17:25:00,58.1,30.6,30.10,WNW,296,6.0,7.0,35,0.00,,,0.00,Wunderground v.1.15,2013-03-26 21:25:00,
2013-03-26 17:30:00,57.7,29.5,30.11,WNW,302,6.0,6.0,34,0.00,,,0.00,Wunderground v.1.15,2013-03-26 21:30:00,
2013-03-26 17:40:00,57.3,29.1,30.10,WNW,302,6.0,6.0,34,0.00,,,0.00,Wunderground v.1.15,2013-03-26 21:40:00,
2013-03-26 17:45:00,57.4,30.6,30.11,WSW,257,5.0,6.0,36,0.00,,,0.00,Wunderground v.1.15,2013-03-26 21:45:00,
2013-03-26 17:50:00,57.5,32.1,30.11,WSW,243,4.0,4.0,38,0.00,,,0.00,Wunderground v.1.15,2013-03-26 21:50:00,
2013-03-26 17:55:00,57.5,32.1,30.11,West,273,5.0,5.0,38,0.00,,,0.00,Wunderground v.1.15,2013-03-26 21:55:00,
2013-03-26 18:00:00,57.2,31.1,30.11,WNW,298,5.0,5.0,37,0.00,,,0.00,Wunderground v.1.15,2013-03-26 22:00:00,
2013-03-26 18:05:00,56.8,29.4,30.11,West,268,5.0,10.0,35,0.00,,,0.00,Wunderground v.1.15,2013-03-26 22:05:00,
2013-03-26 18:10:00,56.5,29.8,30.11,NNW,338,5.0,10.0,36,0.00,,,0.00,Wunderground v.1.15,2013-03-26 22:10:00,
2013-03-26 18:15:00,56.3,30.3,30.11,NW,304,5.0,10.0,37,0.00,,,0.00,Wunderground v.1.15,2013-03-26 22:15:00,
2013-03-26 18:20:00,56.3,31.0,30.11,WNW,299,4.0,4.0,38,0.00,,,0.00,Wunderground v.1.15,2013-03-26 22:20:00,
2013-03-26 18:25:00,56.0,30.7,30.12,West,269,4.0,4.0,38,0.00,,,0.00,Wunderground v.1.15,2013-03-26 22:25:00,
2013-03-26 18:30:00,55.6,30.4,30.12,West,266,5.0,5.0,38,0.00,,,0.00,Wunderground v.1.15,2013-03-26 22:30:00,
2013-03-26 18:35:00,55.4,30.2,30.12,West,281,3.0,5.0,38,0.00,,,0.00,Wunderground v.1.15,2013-03-26 22:35:00,
2013-03-26 18:40:00,55.1,30.6,30.12,West,275,3.0,6.0,39,0.00,,,0.00,Wunderground v.1.15,2013-03-26 22:40:00,
2013-03-26 18:50:00,54.6,30.1,30.12,West,280,3.0,3.0,39,0.00,,,0.00,Wunderground v.1.15,2013-03-26 22:50:00,
2013-03-26 19:00:00,54.0,31.4,30.13,West,280,3.0,3.0,42,0.00,,,0.00,Wunderground v.1.15,2013-03-26 23:00:00,
2013-03-26 19:05:00,53.3,30.8,30.13,WSW,254,3.0,3.0,42,0.00,,,0.00,Wunderground v.1.15,2013-03-26 23:05:00,
2013-03-26 19:10:00,52.8,30.9,30.13,West,269,3.0,3.0,43,0.00,,,0.00,Wunderground v.1.15,2013-03-26 23:10:00,
2013-03-26 19:20:00,51.9,31.2,30.13,West,273,1.0,2.0,45,0.00,,,0.00,Wunderground v.1.15,2013-03-26 23:20:00,
2013-03-26 19:25:00,51.5,31.4,30.14,WNW,284,2.0,2.0,46,0.00,,,0.00,Wunderground v.1.15,2013-03-26 23:25:00,
2013-03-26 19:30:00,51.1,31.6,30.14,West,279,3.0,3.0,47,0.00,,,0.00,Wunderground v.1.15,2013-03-26 23:30:00,
2013-03-26 19:35:00,50.8,31.8,30.14,WNW,294,2.0,3.0,48,0.00,,,0.00,Wunderground v.1.15,2013-03-26 23:35:00,
2013-03-26 19:40:00,50.5,31.5,30.14,WNW,294,1.0,1.0,48,0.00,,,0.00,Wunderground v.1.15,2013-03-26 23:40:00,
2013-03-26 19:50:00,49.7,31.8,30.15,WNW,288,1.0,1.0,50,0.00,,,0.00,Wunderground v.1.15,2013-03-26 23:50:00,
2013-03-26 19:55:00,49.4,32.0,30.16,WNW,288,1.0,1.0,51,0.00,,,0.00,Wunderground v.1.15,2013-03-26 23:55:00,
2013-03-26 20:00:00,49.0,32.1,30.16,WNW,288,0.0,2.0,52,0.00,,,0.00,Wunderground v.1.15,2013-03-27 00:00:00,
2013-03-26 20:05:00,48.7,31.8,30.16,WNW,287,0.0,2.0,52,0.00,,,0.00,Wunderground v.1.15,2013-03-27 00:05:00,
2013-03-26 20:10:00,48.3,32.4,30.16,WNW,287,0.0,0.0,54,0.00,,,0.00,Wunderground v.1.15,2013-03-27 00:10:00,
2013-03-26 20:15:00,48.0,32.6,30.17,WNW,292,1.0,2.0,55,0.00,,,0.00,Wunderground v.1.15,2013-03-27 00:15:00,
2013-03-26 20:20:00,47.8,32.9,30.17,WNW,291,2.0,2.0,56,0.00,,,0.00,Wunderground v.1.15,2013-03-27 00:20:00,
2013-03-26 20:25:00,47.8,32.9,30.16,WNW,292,2.0,2.0,56,0.00,,,0.00,Wunderground v.1.15,2013-03-27 00:25:00,
2013-03-26 20:30:00,47.6,32.7,30.17,WNW,292,1.0,1.0,56,0.00,,,0.00,Wunderground v.1.15,2013-03-27 00:30:00,
2013-03-26 20:35:00,47.3,32.8,30.17,WNW,292,0.0,1.0,57,0.00,,,0.00,Wunderground v.1.15,2013-03-27 00:35:00,
2013-03-26 20:40:00,46.9,32.9,30.17,WNW,292,0.0,0.0,58,0.00,,,0.00,Wunderground v.1.15,2013-03-27 00:40:00,
2013-03-26 20:45:00,46.7,33.1,30.17,WNW,291,1.0,2.0,59,0.00,,,0.00,Wunderground v.1.15,2013-03-27 00:45:00,
2013-03-26 20:55:00,46.3,33.2,30.17,WNW,292,1.0,5.0,60,0.00,,,0.00,Wunderground v.1.15,2013-03-27 00:55:00,
2013-03-26 21:00:00,46.1,33.4,30.17,WNW,292,1.0,1.0,61,0.00,,,0.00,Wunderground v.1.15,2013-03-27 01:00:00,
2013-03-26 21:05:00,45.8,33.1,30.18,WNW,291,1.0,1.0,61,0.00,,,0.00,Wunderground v.1.15,2013-03-27 01:05:00,
2013-03-26 21:10:00,45.6,33.3,30.18,WNW,290,1.0,2.0,62,0.00,,,0.00,Wunderground v.1.15,2013-03-27 01:10:00,
2013-03-26 21:15:00,45.5,33.2,30.18,WNW,290,0.0,2.0,62,0.00,,,0.00,Wunderground v.1.15,2013-03-27 01:15:00,
2013-03-26 21:20:00,45.2,33.3,30.18,WNW,290,0.0,0.0,63,0.00,,,0.00,Wunderground v.1.15,2013-03-27 01:20:00,
2013-03-26 21:25:00,45.0,33.2,30.19,WNW,290,0.0,0.0,63,0.00,,,0.00,Wunderground v.1.15,2013-03-27 01:25:00,
2013-03-26 21:30:00,44.9,33.5,30.19,WNW,290,0.0,0.0,64,0.00,,,0.00,Wunderground v.1.15,2013-03-27 01:30:00,
2013-03-26 21:35:00,44.6,33.2,30.19,WNW,290,0.0,0.0,64,0.00,,,0.00,Wunderground v.1.15,2013-03-27 01:35:00,
2013-03-26 21:40:00,44.3,33.3,30.20,WNW,290,0.0,0.0,65,0.00,,,0.00,Wunderground v.1.15,2013-03-27 01:40:00,
2013-03-26 21:45:00,44.1,33.1,30.20,WNW,290,0.0,0.0,65,0.00,,,0.00,Wunderground v.1.15,2013-03-27 01:45:00,
2013-03-26 21:50:00,43.8,33.2,30.20,WNW,290,0.0,0.0,66,0.00,,,0.00,Wunderground v.1.15,2013-03-27 01:50:00,
2013-03-26 21:55:00,43.5,33.3,30.20,WNW,290,0.0,0.0,67,0.00,,,0.00,Wunderground v.1.15,2013-03-27 01:55:00,
2013-03-26 22:00:00,43.3,33.1,30.20,WNW,290,0.0,0.0,67,0.00,,,0.00,Wunderground v.1.15,2013-03-27 02:00:00,
2013-03-26 22:05:00,43.2,33.3,30.20,WNW,290,0.0,2.0,68,0.00,,,0.00,Wunderground v.1.15,2013-03-27 02:05:00,
2013-03-26 22:10:00,43.2,33.3,30.21,WNW,291,0.0,0.0,68,0.00,,,0.00,Wunderground v.1.15,2013-03-27 02:10:00,
2013-03-26 22:15:00,43.0,33.2,30.20,WNW,291,0.0,2.0,68,0.00,,,0.00,Wunderground v.1.15,2013-03-27 02:15:00,
2013-03-26 22:20:00,42.9,33.4,30.21,WNW,291,1.0,3.0,69,0.00,,,0.00,Wunderground v.1.15,2013-03-27 02:20:00,
2013-03-26 22:25:00,42.9,33.4,30.21,WNW,291,1.0,3.0,69,0.00,,,0.00,Wunderground v.1.15,2013-03-27 02:25:00,
2013-03-26 22:30:00,42.8,33.3,30.21,WNW,291,1.0,1.0,69,0.00,,,0.00,Wunderground v.1.15,2013-03-27 02:30:00,
2013-03-26 22:35:00,42.6,33.1,30.21,WNW,291,0.0,1.0,69,0.00,,,0.00,Wunderground v.1.15,2013-03-27 02:35:00,
2013-03-26 22:40:00,42.3,33.2,30.21,WNW,291,0.0,0.0,70,0.00,,,0.00,Wunderground v.1.15,2013-03-27 02:40:00,
2013-03-26 22:50:00,41.7,33.0,30.21,WNW,291,0.0,0.0,71,0.00,,,0.00,Wunderground v.1.15,2013-03-27 02:50:00,
2013-03-26 22:55:00,41.5,32.8,30.21,WNW,291,0.0,0.0,71,0.00,,,0.00,Wunderground v.1.15,2013-03-27 02:55:00,
2013-03-26 23:00:00,41.3,32.6,30.21,WNW,291,0.0,0.0,71,0.00,,,0.00,Wunderground v.1.15,2013-03-27 03:00:00,
2013-03-26 23:05:00,41.1,32.8,30.21,WNW,291,0.0,0.0,72,0.00,,,0.00,Wunderground v.1.15,2013-03-27 03:05:00,
2013-03-26 23:15:00,40.8,32.5,30.21,WNW,291,0.0,0.0,72,0.00,,,0.00,Wunderground v.1.15,2013-03-27 03:15:00,
2013-03-26 23:20:00,40.7,32.7,30.22,WNW,291,0.0,0.0,73,0.00,,,0.00,Wunderground v.1.15,2013-03-27 03:20:00,
2013-03-26 23:25:00,40.6,32.6,30.21,WNW,291,0.0,0.0,73,0.00,,,0.00,Wunderground v.1.15,2013-03-27 03:25:00,
2013-03-26 23:30:00,40.5,32.9,30.22,WNW,291,0.0,0.0,74,0.00,,,0.00,Wunderground v.1.15,2013-03-27 03:30:00,
2013-03-26 23:35:00,40.5,32.9,30.22,WNW,291,0.0,0.0,74,0.00,,,0.00,Wunderground v.1.15,2013-03-27 03:35:00,
2013-03-26 23:40:00,40.6,33.3,30.22,WNW,291,1.0,3.0,75,0.00,,,0.00,Wunderground v.1.15,2013-03-27 03:40:00,
2013-03-26 23:45:00,40.7,33.4,30.22,WNW,291,1.0,3.0,75,0.00,,,0.00,Wunderground v.1.15,2013-03-27 03:45:00,
2013-03-26 23:50:00,40.8,33.5,30.22,WNW,291,1.0,2.0,75,0.00,,,0.00,Wunderground v.1.15,2013-03-27 03:50:00,
2013-03-26 23:55:00,40.9,33.6,30.22,WNW,291,1.0,2.0,75,0.00,,,0.00,Wunderground v.1.15,2013-03-27 03:55:00,